Tracking 29762 objects as of 8-Oct-2024
HD Live streaming from Space Station
objects crossing your sky now

ERS 2 DEB

Track ERS 2 DEB now!
10-day predictions


NORAD ID: 35393
Int'l Code: 1995-021G
Perigee: 729.0 km
Apogee: 738.0 km
Inclination: 98.4 °
Period: 99.3 minutes
Semi major axis: 7104 km
RCS: 0.0072 m2 (small)
Launch date: April 21, 1995
Source: European Space Agency (ESA)
Launch site: FRENCH GUIANA (FRGUI)

Note: This is SATELLITE DEBRIS
Your satellite tracking list
Your tracking list is empty




NASA's NSSDC Master Catalog

Two Line Element Set (TLE):
1 35393U 95021G   24280.84364505  .00016228  00000-0  42110-2 0  9990
2 35393  98.4428 242.0722 0006359  46.5072 345.0461 14.49778807112378
Source of the keplerian elements: AFSPC